Location: *
(49.6619°S, 177.4603°W)
Time: 12:41:45
(UTC+00:00)

Cosmos 1833 Rocket - Pass Details

Date: 31 January 2023
Orbit: 831 x 841 km, 71.0° (Epoch: 28 March)

Event Time Altitude Azimuth Distance (km) Brightness Sun altitude
Rises 09:21:54 0° 206° (SSW) 3,433 7.6 -14.1°
Reaches altitude 10° 09:24:52 10° 192° (SSW) 2,492 6.2 -14.4°
Maximum altitude 09:29:27 24° 139° (SE) 1,691 4.4 -14.8°
Drops below altitude 10° 09:34:00 10° 85° (E) 2,470 4.7 -15.3°
Enters shadow 09:34:03 10° 85° (E) 2,483 4.8 -15.3°
